TimePDT,TemperatureF,Dew PointF,Humidity,Sea Level PressureIn,VisibilityMPH,Wind Direction,Wind SpeedMPH,Gust SpeedMPH,PrecipitationIn,Events,Conditions,WindDirDegrees,DateUTC
12:46 AM,48.2,30.2,50,30.00,10.0,NW,9.2,-,N/A,,Clear,310,2013-03-22 07:46:00
1:46 AM,48.2,26.6,43,30.01,10.0,NNW,16.1,-,N/A,,Clear,330,2013-03-22 08:46:00
2:46 AM,46.4,26.6,46,30.02,10.0,NNW,17.3,-,N/A,,Clear,330,2013-03-22 09:46:00
3:46 AM,44.6,28.4,53,30.02,10.0,NW,11.5,-,N/A,,Clear,310,2013-03-22 10:46:00
4:46 AM,42.8,28.4,57,30.02,10.0,NNW,12.7,-,N/A,,Clear,330,2013-03-22 11:46:00
5:46 AM,41.0,26.6,57,30.03,10.0,NNW,13.8,-,N/A,,Clear,330,2013-03-22 12:46:00
6:45 AM,41.0,26.6,57,30.05,10.0,NNW,10.4,-,N/A,,Clear,330,2013-03-22 13:45:00
7:45 AM,41.0,26.6,57,30.06,10.0,NW,9.2,-,N/A,,Clear,320,2013-03-22 14:45:00
8:50 AM,44.6,39.2,81,30.08,10.0,NNW,10.4,-,N/A,,Clear,330,2013-03-22 15:50:00
9:57 AM,50.0,24.8,37,30.09,10.0,NW,16.1,20.7,N/A,,Clear,320,2013-03-22 16:57:00
10:47 AM,62.6,19.4,19,30.08,10.0,NW,17.3,23.0,N/A,,Clear,320,2013-03-22 17:47:00
11:50 AM,59.0,14.0,17,30.07,10.0,NW,17.3,29.9,N/A,,Clear,320,2013-03-22 18:50:00
12:50 PM,60.8,10.4,14,30.06,10.0,NW,26.5,33.4,N/A,,Clear,310,2013-03-22 19:50:00
1:55 PM,62.6,19.4,19,30.05,10.0,NW,20.7,29.9,N/A,,Clear,320,2013-03-22 20:55:00
2:50 PM,62.6,17.6,18,30.03,10.0,NW,16.1,26.5,N/A,,Clear,320,2013-03-22 21:50:00
6:45 PM,59.0,21.2,23,30.02,10.0,NNW,9.2,20.7,N/A,,Clear,330,2013-03-23 01:45:00
7:55 PM,55.4,24.8,31,30.03,10.0,NNW,11.5,-,N/A,,Clear,330,2013-03-23 02:55:00
8:50 PM,55.4,24.8,31,30.04,10.0,NW,11.5,-,N/A,,Clear,310,2013-03-23 03:50:00
9:55 PM,51.8,24.8,35,30.06,10.0,NW,9.2,-,N/A,,Clear,310,2013-03-23 04:55:00
10:45 PM,50.0,24.8,37,30.06,10.0,NW,6.9,-,N/A,,Clear,320,2013-03-23 05:45:00
11:45 PM,46.4,26.6,46,30.07,10.0,NNW,8.1,-,N/A,,Clear,330,2013-03-23 06:45:00